Back to catalog

COSMOS 2251 DEB

AliveLEO
NORAD 40233·DEBRIS·🇷🇺 Russia

Launched Jun 16, 1993 from Plesetsk Cosmodrome

Loading…

Next Passes (next 24 hours)

TLE

AgingSource: Space-Track

Epoch: Sep 12, 2026, 09:21 UTC

1 40233U 93036BVN 26255.38975154  .00002064  00000-0  42383-3 0  9990
2 40233  73.9379 298.0247 0047227 308.9767  50.7195 14.60651850631302

Track COSMOS 2251 DEB in real time with AllMySat

Download on the App Store